Eagle Creek, IN

10:38 AM EDT on June 29, 2017 (GMT -0400)
Eagle Creek

Weather History for KEYE - September, 2013

Change the Weather History Date:

Sunday, September 22, 2013

  Actual Average Record
Temperature  
Mean Temperature 59 °F 64 °F  
Max Temperature 69 °F 75 °F 88 °F (2016)
Min Temperature 49 °F 54 °F 41 °F (1999)
Degree Days  
Heating Degree Days 6 3  
Month to date heating degree days 30 22  
Since 1 July heating degree days 41 25  
Cooling Degree Days 0 2  
Month to date cooling degree days 137 108  
Year to date cooling degree days 972 1028  
Growing Degree Days 9 (Base 50)    
Moisture  
Dew Point 46 °F    
Average Humidity 64    
Maximum Humidity 86    
Minimum Humidity 42    
Precipitation  
Precipitation 0.00 in 0.08 in 0.66 in (1992)
Month to date precipitation 1.58 1.64  
Year to date precipitation 29.07 30.29  
Sea Level Pressure  
Sea Level Pressure 29.98 in    
Wind  
Wind Speed 3 mph (NNE)    
Max Wind Speed 10 mph    
Max Gust Speed 16 mph    
Visibility 10 miles    
Events      
T = Trace of Precipitation, MM = Missing Value Source: NWS Daily Summary

Daily Weather History Graph

Daily Weather History Graph

Search for Another Location

Airport or City:

Trip Planner

Search our weather history database for the weather conditions in past years. The results will help you decide how hot, cold, wet, or windy it might be!

Date:

Astronomy

Sep. 22, 2013 Rise Set
Actual Time 7:33 AM EDT 7:41 PM EDT
Civil Twilight 7:06 AM EDT 8:08 PM EDT
Nautical Twilight 6:34 AM EDT 8:40 PM EDT
Astronomical Twilight 6:02 AM EDT 9:12 PM EDT
Moon 9:31 PM EDT (9/22) 10:52 AM EDT (9/22)
Length of Visible Light 13h 02m
Length of Day
12h 08m
Waning Gibbous, 89% of the Moon is Illuminated
Sep 22
Waning Gibbous
Sep 26
Last Quarter
Oct 4
New
Oct 11
First Quarter
Oct 18
Full

Hourly Weather History & Observations

Time (EDT) Temp. Dew Point Humidity Pressure Visibility Wind Dir Wind Speed Gust Speed Precip Events Conditions
12:53 AM 54.0 °F 46.0 °F 75% 29.92 in 10.0 mi Calm Calm - N/A   Clear
1:53 AM 53.1 °F 46.0 °F 77% 29.93 in 10.0 mi Calm Calm - N/A   Clear
2:53 AM 51.1 °F 46.0 °F 83% 29.94 in 10.0 mi North 3.5 mph - N/A   Clear
3:53 AM 51.1 °F 45.0 °F 80% 29.93 in 10.0 mi North 3.5 mph - N/A   Clear
4:53 AM 50.0 °F 46.0 °F 86% 29.94 in 10.0 mi Calm Calm - N/A   Clear
5:53 AM 51.1 °F 46.9 °F 86% 29.95 in 10.0 mi Calm Calm - N/A   Clear
6:53 AM 50.0 °F 46.9 °F 89% 29.96 in 10.0 mi Calm Calm - N/A   Clear
7:53 AM 50.0 °F 46.0 °F 86% 29.98 in 10.0 mi North 4.6 mph - N/A   Clear
8:53 AM 53.1 °F 46.0 °F 77% 29.99 in 10.0 mi North 4.6 mph - N/A   Clear
9:53 AM 57.0 °F 48.0 °F 72% 30.01 in 10.0 mi North 4.6 mph - N/A   Clear
10:53 AM 59.0 °F 48.0 °F 67% 30.02 in 10.0 mi NE 3.5 mph - N/A   Mostly Cloudy
11:38 AM 60.8 °F 48.2 °F 63% 30.02 in 10.0 mi ENE 4.6 mph - N/A   Scattered Clouds
11:53 AM 62.1 °F 46.9 °F 58% 30.02 in 10.0 mi Calm Calm - N/A   Partly Cloudy
12:53 PM 63.0 °F 46.9 °F 56% 30.01 in 10.0 mi Variable 6.9 mph - N/A   Mostly Cloudy
1:53 PM 63.0 °F 46.0 °F 54% 30.01 in 10.0 mi ENE 5.8 mph - N/A   Mostly Cloudy
2:53 PM 66.0 °F 46.9 °F 50% 29.99 in 10.0 mi NE 8.1 mph 16.1 mph N/A   Scattered Clouds
3:53 PM 66.9 °F 44.1 °F 44% 29.96 in 10.0 mi Variable 6.9 mph - N/A   Clear
4:53 PM 68.0 °F 44.1 °F 42% 29.96 in 10.0 mi Variable 6.9 mph - N/A   Clear
5:53 PM 66.9 °F 43.0 °F 42% 29.96 in 10.0 mi NE 6.9 mph - N/A   Clear
6:53 PM 66.0 °F 42.1 °F 42% 29.98 in 10.0 mi NNE 3.5 mph - N/A   Clear
7:53 PM 62.1 °F 43.0 °F 50% 29.98 in 10.0 mi Calm Calm - N/A   Clear
8:53 PM 57.9 °F 45.0 °F 62% 29.99 in 10.0 mi NNE 3.5 mph - N/A   Clear
9:53 PM 55.9 °F 45.0 °F 67% 30.00 in 10.0 mi North 3.5 mph - N/A   Clear
10:53 PM 55.0 °F 45.0 °F 69% 30.01 in 10.0 mi Calm Calm - N/A   Clear
11:53 PM 53.1 °F 44.1 °F 71% 30.02 in 10.0 mi Calm Calm - N/A   Clear